Terminal Aerodrome Forecast
Issued by NWS

Home | Current Version | Previous Version | Text Only | Print | Product List | Glossary On
Versions: 1 2 3 4 5 6 7 8 9 10 11 12 13 14 15 16 17 18 19 20 21 22 23 24 25 26 27 28 29 30 31 32 33 34 35 36 37 38 39 40 41 42 43 44 45 46 47 48 49 50
000
FTUS45 KGJT 270532
TAFASE
TAF
KASE 270532Z 2706/2806 VRB03KT P6SM VCSH FEW080 BKN110
      TEMPO 2708/2710 -RA BKN060
     FM271000 22003KT P6SM SCT120
     FM271200 VRB04KT P6SM BKN100
     FM271800 33010KT P6SM VCSH SCT060 BKN100
     FM280300 21007KT P6SM FEW060 BKN100=

USA.gov is the U.S. government's official web portal to all federal, state and local government web resources and services.